Doylestown, PA

5:17 PM EDT on September 19, 2017 (GMT -0400)
Doylestown

Weather History for KDYL - April, 2013

Change the Weather History Date:

Monday, April 1, 2013

  Actual Average (KTTN) Record (KTTN)
Temperature  
Mean Temperature 47 °F -  
Max Temperature 61 °F 54 °F 81 °F (1978)
Min Temperature 34 °F 36 °F 11 °F (1923)
Degree Days  
Heating Degree Days 18    
Moisture  
Dew Point 36 °F    
Average Humidity 75    
Maximum Humidity 100    
Minimum Humidity 34    
Precipitation  
Precipitation 0.00 in - - ()
Sea Level Pressure  
Sea Level Pressure 29.74 in    
Wind  
Wind Speed 7 mph (WSW)    
Max Wind Speed 25 mph    
Max Gust Speed 34 mph    
Visibility 7 miles    
Events Fog , Rain    
Averages and records for this station are not official NWS values.
T = Trace of Precipitation, MM = Missing Value Source: NWS Daily Summary

Daily Weather History Graph

Daily Weather History Graph

Search for Another Location

Airport or City:

Trip Planner

Search our weather history database for the weather conditions in past years. The results will help you decide how hot, cold, wet, or windy it might be!

Date:

Astronomy

Apr. 01, 2013 Rise Set
Actual Time 6:43 AM EDT 7:25 PM EDT
Civil Twilight 6:16 AM EDT 7:52 PM EDT
Nautical Twilight 5:44 AM EDT 8:25 PM EDT
Astronomical Twilight 5:10 AM EDT 8:58 PM EDT
Moon 12:31 AM EDT (4/1) 10:27 AM EDT (4/1)
Length of Visible Light 13h 36m
Length of Day
12h 41m
Waning Gibbous, 67% of the Moon is Illuminated
Apr 1
Waning Gibbous
Apr 3
Last Quarter
Apr 10
New
Apr 18
First Quarter
Apr 25
Full

Hourly Weather History & Observations

Time (EDT) Temp. Windchill Dew Point Humidity Pressure Visibility Wind Dir Wind Speed Gust Speed Precip Events Conditions
12:16 AM 46.4 °F 44.3 °F 44.6 °F 93% 29.70 in 10.0 mi West 4.6 mph - N/A   Overcast
1:23 AM 44.6 °F 42.2 °F 42.8 °F 93% 29.70 in 10.0 mi SW 4.6 mph - N/A   Scattered Clouds
1:49 AM 44.6 °F 40.7 °F 44.6 °F 100% 29.71 in 7.0 mi SSW 6.9 mph - N/A   Mostly Cloudy
1:54 AM 45.0 °F 40.6 °F 44.1 °F 97% 29.72 in 7.0 mi SW 8.1 mph - N/A   Mostly Cloudy
2:24 AM 44.6 °F 41.4 °F 42.8 °F 93% 29.71 in 8.0 mi WSW 5.8 mph - N/A   Scattered Clouds
2:54 AM 44.1 °F 41.5 °F 43.0 °F 96% 29.72 in 7.0 mi WSW 4.6 mph - N/A   Clear
3:54 AM 42.1 °F 39.2 °F 42.1 °F 100% 29.72 in 4.0 mi SW 4.6 mph - N/A   Partly Cloudy
4:12 AM 42.8 °F 39.3 °F 42.8 °F 100% 29.71 in 4.0 mi SW 5.8 mph - N/A   Mostly Cloudy
4:54 AM 42.1 °F 37.7 °F 42.1 °F 100% 29.73 in 4.0 mi WSW 6.9 mph - N/A   Mostly Cloudy
5:33 AM 42.8 °F 40.1 °F 42.8 °F 100% 29.72 in 2.0 mi SW 4.6 mph - N/A   Overcast
5:54 AM 42.1 °F 38.4 °F 42.1 °F 100% 29.73 in 2.5 mi SW 5.8 mph - N/A   Overcast
6:21 AM 42.8 °F 40.1 °F 42.8 °F 100% 29.71 in 1.5 mi SW 4.6 mph - N/A   Overcast
6:40 AM 42.8 °F 39.3 °F 42.8 °F 100% 29.70 in 1.2 mi SW 5.8 mph - N/A   Overcast
6:54 AM 41.0 °F 39.0 °F 41.0 °F 100% 29.73 in 1.0 mi WSW 3.5 mph - N/A   Overcast
7:04 AM 41.0 °F 38.0 °F 41.0 °F 100% 29.72 in 0.5 mi WSW 4.6 mph - N/A Fog Fog
7:23 AM 41.0 °F 39.0 °F 41.0 °F 100% 29.71 in 1.8 mi SW 3.5 mph - N/A   Mostly Cloudy
7:30 AM 41.0 °F 38.0 °F 41.0 °F 100% 29.71 in 2.5 mi SW 4.6 mph - N/A   Scattered Clouds
7:54 AM 42.1 °F 39.2 °F 41.0 °F 96% 29.72 in 3.0 mi WSW 4.6 mph - N/A   Clear
9:54 AM 50.0 °F - 42.1 °F 74% 29.71 in 10.0 mi WSW 11.5 mph 17.3 mph N/A   Clear
10:54 AM 54.0 °F - 42.1 °F 64% 29.70 in - West 10.4 mph 17.3 mph N/A   Unknown
11:54 AM 59.0 °F - 39.0 °F 48% 29.69 in 10.0 mi West 12.7 mph 21.9 mph N/A   Clear
12:54 PM 60.1 °F - 37.0 °F 42% 29.67 in 10.0 mi West 12.7 mph 24.2 mph N/A   Partly Cloudy
1:54 PM 60.1 °F - 39.0 °F 46% 29.67 in 10.0 mi West 12.7 mph 25.3 mph N/A   Partly Cloudy
2:54 PM 57.0 °F - 36.0 °F 45% 29.68 in 10.0 mi WNW 11.5 mph 25.3 mph N/A   Scattered Clouds
4:54 PM 48.9 °F - 32.0 °F 52% 29.73 in 10.0 mi WNW 9.2 mph 19.6 mph 0.00 in Rain Light Rain
5:54 PM 50.0 °F - 26.1 °F 39% 29.75 in 10.0 mi NW 25.3 mph 34.5 mph 0.00 in   Partly Cloudy
6:54 PM 46.9 °F - 23.0 °F 39% 29.78 in 10.0 mi NW 19.6 mph 26.5 mph N/A   Clear
7:54 PM 44.1 °F 38.1 °F 17.1 °F 34% 29.82 in 10.0 mi WNW 11.5 mph 19.6 mph N/A   Clear
8:54 PM 42.1 °F 37.1 °F 16.0 °F 35% 29.85 in 10.0 mi WNW 8.1 mph - N/A   Clear
9:54 PM 39.0 °F 32.3 °F 16.0 °F 39% 29.89 in 10.0 mi North 10.4 mph - N/A   Clear
10:54 PM 34.0 °F 28.0 °F 12.9 °F 42% 29.92 in 10.0 mi NNW 6.9 mph - N/A   Clear
11:54 PM 35.1 °F 27.9 °F 12.0 °F 39% 29.94 in 10.0 mi NW 9.2 mph 17.3 mph N/A   Clear